Location: Lohne
(52.4537°N, 9.8867°E)
Time: 23:08:20
(UTC+00:00)

Daily predictions for brighter satellites

Satellite Brightness Start Highest point End
(mag) Time Altitude Azimuth Time Altitude Azimuth Time Altitude Azimuth
Cosmos 1626 Rocket 3.9 15:39:49 10° N 15:43:58 41° ENE 15:48:03 10° SE
Cosmos 2084 3.4 15:40:45 10° SW 15:44:58 87° NW 15:49:08 10° NE
IGS 5A 3.7 15:41:52 10° SE 15:45:39 44° ENE 15:49:27 10° N
Cosmos 2227 Rocket 3.0 15:41:09 10° NNW 15:46:08 31° NE 15:51:06 10° ESE
MOS 1 Rocket 4.5 15:43:01 10° ESE 15:46:59 25° ENE 15:51:07 10° N
Cosmos 1892 Rocket 4.1 15:43:52 10° NNW 15:48:18 68° W 15:52:43 10° S
NOSS 2-2 (D) 4.2 15:48:26 10° S 15:51:11 24° SE 15:53:43 10° ENE
Cosmos 2369 Rocket 3.1 15:46:16 10° WSW 15:51:41 46° NW 15:57:10 10° NNE
Cosmos 2084 Rocket 3.7 15:47:52 10° NW 15:51:57 47° NNE 15:56:02 10° ESE
Cosmos 1943 Rocket 4.2 15:49:11 10° WNW 15:52:23 15° NNW 15:55:34 10° NNE
Cosmos 724 4.4 15:47:23 10° NW 15:53:29 65° NE 15:59:23 10° SE
Thor Agena Rocket 3.7 15:49:31 10° SE 15:54:34 53° ENE 15:59:35 10° N
BlueWalker 3 3.1 15:52:03 10° W 15:55:30 42° SSW 15:58:57 10° SE
Meteor 1-28 Rocket 3.6 15:55:58 10° NNE 15:59:06 35° E 16:02:11 10° SSE
Cosmos 1356 Rocket 3.3 15:55:12 10° S 15:59:14 70° E 16:03:19 10° NNE
Cosmos 2026 Rocket 4.3 15:54:06 10° NNW 16:00:19 73° W 16:06:35 10° S
Cosmos 2278 Rocket 4.2 15:58:45 10° WNW 16:02:01 15° NNW 16:05:18 10° NNE
Cosmos 1544 Rocket 4.1 16:00:06 10° SSE 16:04:12 40° E 16:08:22 10° NNE
Cosmos 1484 Rocket 2.5 16:01:21 10° SSE 16:04:53 87° ENE 16:08:24 10° NNW
Cosmos 1697 Rocket 4.2 16:02:05 10° SE 16:05:41 18° E 16:09:00 11° ENE
IRS-1C 4.4 16:00:44 10° SE 16:05:45 44° ENE 16:10:48 10° N
NOSS 2-2 (E) 4.0 16:02:59 10° S 16:05:50 26° SE 16:08:05 12° ENE
Intercosmos 24 3.7 16:04:12 10° N 16:08:17 70° ENE 16:11:49 10° SSE
Cosmos 405 Rocket 2.2 16:05:10 10° NNW 16:08:27 86° ENE 16:11:41 10° SSE
Cosmos 1634 Rocket 4.0 16:04:09 10° S 16:10:20 78° E 16:16:31 10° NNE
Okean 1-7 Rocket 4.3 16:06:39 10° N 16:10:36 31° ENE 16:14:31 10° SE
Lacrosse 5 rocket 1.0 16:09:32 10° WSW 16:13:17 82° NNW 16:16:22 14° ENE
CENTAUR R/B 2.7 16:12:20 10° SW 16:18:11 74° NW 16:25:22 11° NE
Cosmos 1461 4.3 16:15:24 10° SSE 16:18:12 19° ESE 16:20:09 14° E
Meteor 1-20 Rocket 4.3 16:14:19 10° N 16:19:41 52° ENE 16:25:00 10° SSE
Cosmos 1602 Rocket 3.6 16:18:04 10° N 16:22:25 54° ENE 16:26:41 10° SSE
Cosmos 1455 Rocket 4.1 16:18:25 10° SSW 16:22:36 47° WNW 16:26:51 10° N
Cosmos 2279 Rocket 4.0 16:18:46 10° S 16:24:55 72° E 16:31:09 10° NNE
IRIDIUM 103 4.4 16:22:28 10° N 16:27:37 53° E 16:32:43 10° SSE
SMAP 3.0 16:26:30 10° SSE 16:31:09 81° ENE 16:35:50 10° NNW
ERS-1 4.5 16:26:55 10° SE 16:31:48 57° ENE 16:36:41 10° N
UNK 3.8 16:27:27 10° NNE 16:31:59 55° E 16:36:28 10° S
Cosmos 1656 3.7 16:27:03 10° SSW 16:32:38 67° ESE 16:37:56 12° NE
YAOGAN 1 3.5 16:31:40 10° ESE 16:35:07 24° ENE 16:38:34 10° N
Cosmos 1867 3.5 16:30:11 10° NW 16:35:41 74° NE 16:41:08 10° SE
Cosmos 2228 3.5 16:31:58 10° SSW 16:36:10 62° WNW 16:40:24 10° N
NOSS 2-2 (C) 2.8 16:33:08 10° SW 16:36:14 64° NW 16:38:05 21° NE
Landsat 7 3.7 16:32:00 10° SSE 16:36:39 72° ENE 16:41:18 10° N
SAR-Lupe-4 3.4 16:33:24 10° SSE 16:36:55 65° ENE 16:40:28 10° N
Cosmos 1486 Rocket 4.1 16:32:35 10° S 16:37:41 59° ESE 16:42:24 12° NNE
NOSS 7 (H) 3.9 16:35:40 10° NW 16:38:34 65° NE 16:41:17 12° SE
Cosmos 2297 Rocket 2.4 16:33:49 10° NNW 16:39:30 76° WSW 16:45:09 10° SSE
USA 290 2.4 16:36:19 10° NNW 16:39:35 73° WSW 16:42:50 10° SSE
USA 215 3.4 16:35:28 16° ENE 16:40:46 61° N 16:47:13 10° WNW
Cosmos 2180 Rocket 4.4 16:36:23 10° S 16:42:27 69° E 16:48:35 10° NNE
Cosmos 1953 Rocket 4.3 16:41:14 10° N 16:45:13 31° ENE 16:49:11 10° SE
Resurs 01 Rocket 3.7 16:47:36 12° NNE 16:47:36 12° NNE 16:48:08 10° NNE
SAR-Lupe-1 3.9 16:42:23 10° SSE 16:45:58 72° ENE 16:49:35 10° N
IRIDIUM 106 4.2 16:40:45 10° N 16:46:00 74° E 16:51:13 10° S
Cosmos 1782 2.6 16:42:57 10° SSW 16:46:33 80° W 16:50:10 10° N
ATLAS CENTAUR R/B 2.8 16:43:42 10° WNW 16:46:36 30° WSW 16:49:25 10° S
CZ-4C R/B 3.0 16:40:53 10° NW 16:47:36 85° SW 16:56:05 10° SE
Cosmos 1607 4.3 16:42:39 10° NW 16:48:51 69° SW 16:55:05 10° SSE
Cosmos 1733 4.2 16:47:52 10° NW 16:49:07 18° W 16:50:20 10° SW
CZ-2D R/B 2.6 16:49:21 10° SSE 16:52:29 88° W 16:55:40 10° NNW
Meteor 1-25 Rocket 4.2 16:49:11 10° N 16:55:03 75° ENE 17:00:50 10° SSE
IRS-P3 4.0 16:50:10 10° SSE 16:55:28 76° ENE 17:00:49 10° NNW
Cosmos 1825 Rocket 3.5 16:51:53 10° N 16:56:13 60° ENE 17:00:28 10° SSE
Lacrosse 4 Rocket 2.9 16:52:42 10° W 16:56:14 28° NW 16:59:05 13° NNE
Cosmos 2219 3.7 16:50:57 10° NNW 16:56:17 38° NE 16:59:37 20° E
ARIANE 5 R/B 2.6 16:52:11 10° SSE 16:57:14 79° WSW 17:02:25 10° NNW
Cosmos 2266 Rocket 3.9 16:52:19 10° N 16:58:32 89° ENE 17:04:38 10° S
Meteor 1-5 Rocket 4.1 16:57:17 10° N 17:02:34 58° ENE 17:07:54 10° SSE
Cosmos 2098 Rocket 3.4 16:58:52 10° SSW 17:03:00 71° WNW 17:07:55 10° N
Cosmos 2151 3.4 16:59:40 10° NNW 17:03:48 64° W 17:07:54 10° S
Cosmos 1743 3.7 17:01:22 10° NNW 17:04:28 40° W 17:07:31 10° SSW
SPOT 1/Viking Rocket 3.5 17:02:02 10° SSE 17:07:11 66° ENE 17:12:22 10° N
Cosmos 1980 Rocket 3.2 17:03:29 10° SSE 17:07:56 24° ESE 17:08:01 24° ESE
Cosmos 1844 Rocket 3.9 17:06:16 10° NNW 17:10:40 23° NE 17:10:59 22° NE
SL-16 R/B 3.4 17:08:38 10° N 17:14:37 49° WNW 17:20:32 10° SW
Cosmos 2263 Rocket 2.1 17:12:17 10° NNW 17:17:57 65° NE 17:23:09 12° SE
NOSS 3-2 (C) 3.1 17:15:10 10° SSW 17:20:15 70° SE 17:23:02 32° NE
NOSS 3-2 (A) 3.5 17:15:13 10° WSW 17:20:26 65° NW 17:24:05 25° NE
GEOS 3 Rocket 3.8 17:19:36 26° NE 17:22:43 75° NW 17:28:05 10° SW
CZ-4 R/B 4.3 17:20:06 10° SSE 17:24:03 86° WSW 17:28:02 10° NNW
MOS 1 Rocket 3.9 17:19:42 10° S 17:24:33 64° W 17:29:44 10° NNW
Cosmos 1076 Rocket 3.3 17:21:15 10° N 17:25:34 76° ENE 17:29:52 10° SSE
BREEZE M DEB (TANK) 3.9 17:24:21 10° SW 17:25:20 18° SSW 17:25:20 18° SSW
Cosmos 1933 3.2 17:25:17 10° SSW 17:29:06 80° W 17:30:45 33° N
Cosmos 2227 Rocket 2.4 17:25:03 10° NW 17:30:40 70° WSW 17:36:17 10° SSE
Cosmos 1538 Rocket 3.9 17:26:22 10° NNW 17:31:39 73° ENE 17:36:28 13° SSE
Cosmos 1606 Rocket 3.5 17:28:11 10° SSW 17:32:36 85° W 17:35:24 23° N
Cosmos 2360 4.5 17:28:06 10° SW 17:33:48 67° NW 17:37:25 23° NNE
PSLV R/B 3.2 17:36:04 47° SE 17:37:08 74° ENE 17:41:12 10° NNW
Cosmos 2369 Rocket 4.3 17:33:36 10° WNW 17:37:12 17° NNW 17:40:31 11° NNE
COSMO-SKYMED 1 3.3 17:39:14 34° SSE 17:39:14 34° SSE 17:41:51 10° S
CZ-2D R/B 3.5 17:33:44 10° SSE 17:37:56 81° WSW 17:42:07 10° NNW
Cosmos 1943 Rocket 4.3 17:37:04 10° NNW 17:38:41 11° N 17:39:20 11° NNE
NOSS 2-2 (D) 4.0 17:37:20 10° WSW 17:40:03 34° NW 17:40:03 34° NW
Cosmos 1244 Rocket 4.4 17:34:31 10° N 17:40:48 63° ENE 17:46:58 10° SSE
SL-19 R/B 4.1 17:36:14 10° SSE 17:41:36 83° ENE 17:47:19 10° NNW
Resurs 1-3 3.4 17:37:38 10° SSE 17:41:57 89° ENE 17:46:17 10° NNW
Cosmos 1503 Rocket 4.2 17:38:08 10° SW 17:43:21 68° WNW 17:46:10 27° NNE
BREEZE-M DEB (TANK) 4.2 17:40:16 10° W 17:43:53 62° S 17:48:33 28° ESE
Meteor 2-20 4.3 17:42:09 10° S 17:48:17 78° E 17:54:09 12° NNE
Cosmos 2278 Rocket 4.3 17:46:38 10° NNW 17:48:42 12° N 17:49:06 12° N
Cosmos 1697 Rocket 2.6 17:43:12 10° SSW 17:48:50 88° ESE 17:50:45 44° NNE
Lacrosse 5 rocket 2.2 17:47:05 10° WNW 17:49:58 36° NNW 17:49:58 36° NNW
Cosmos 1354 Rocket 4.0 17:46:18 10° SSW 17:51:34 79° WNW 17:53:34 39° NNE
BREEZE-M DEB (TANK) 4.1 17:49:15 10° W 17:53:01 88° S 17:57:03 37° ESE
Cosmos 1461 3.0 17:50:41 10° SW 17:54:18 65° WNW 17:54:18 65° WNW
Spot 4 Rocket 4.3 17:50:40 10° S 17:55:45 69° WSW 18:00:53 10° NNW
IRAS Rocket 4.2 17:51:24 10° SSE 17:56:54 79° WSW 18:02:25 10° NNW
Cosmos 1726 Rocket 4.0 17:53:18 10° SSW 17:57:55 66° WNW 17:59:49 34° N
SL-08 R/B 4.4 17:52:46 10° N 17:59:06 70° ENE 18:05:25 10° SSE
Cosmos 1655 Rocket 4.4 17:53:37 10° NNW 17:59:47 63° W 18:05:54 10° S
SKYMED 2 3.8 17:59:35 56° NNW 18:00:21 69° WNW 18:04:40 10° SSW
Gbstr 26 Del rocket 4.2 18:00:18 10° SW 18:02:38 30° SSW 18:02:38 30° SSW
Meteor 2-10 4.3 18:01:50 10° NNW 18:07:09 72° W 18:12:37 10° S
CENTAUR R/B 3.7 18:03:52 10° W 18:09:58 39° NNW 18:12:27 31° NNE
Meteor 2-20 Rocket 4.3 18:04:12 10° S 18:10:26 81° E 18:12:29 45° NNE
YAOGAN 1 3.4 18:06:37 10° S 18:10:44 47° W 18:14:53 10° NNW
Cosmos 923 Rocket 4.4 18:08:41 10° NNW 18:12:38 51° N 18:12:38 51° N
USA 281 4.0 18:17:15 35° NNE 18:17:15 35° NNE 18:21:52 10° NNW
Cosmos 2082 3.6 18:11:00 10° NNW 18:16:45 90° WSW 18:17:04 81° SSE
Meteor 1-26 Rocket 4.5 18:14:00 10° S 18:18:03 52° S 18:18:03 52° S
USA 238 DEB 3.5 18:14:22 10° SSW 18:19:57 61° SSE 18:19:57 61° SSE
USA 238 3.6 18:14:28 10° SSW 18:20:02 61° SSE 18:20:02 61° SSE
Resurs 01 Rocket 4.0 18:25:00 14° NNW 18:25:00 14° NNW 18:25:39 10° NNW
USA 215 3.1 18:22:49 70° ENE 18:23:33 79° NNE 18:30:07 10° WNW
Lacrosse 4 Rocket 4.2 18:34:26 10° NNW 18:34:34 10° NNW 18:34:34 10° NNW
Cosmos 2219 3.8 18:35:04 10° NW 18:40:38 54° WSW 18:41:35 48° SW
Cosmos 1980 Rocket 3.0 18:45:46 10° SW 18:49:48 47° SW 18:49:48 47° SW
Cosmos 1844 Rocket 4.1 18:49:49 10° NNW 18:52:37 30° NNW 18:52:37 30° NNW
Cosmos 2263 Rocket 4.0 18:56:45 10° NW 19:01:27 28° WSW 19:04:58 15° SSW
NOSS 3-2 (C) 4.5 19:06:17 10° W 19:10:27 38° NW 19:10:27 38° NW
CENTAUR R/B 4.3 19:55:39 10° NW 19:59:34 30° NNW 19:59:34 30° NNW
